[[{"header":{"parameterUnit":"m.s-1","parameterCategory":1,"la1":30.2991,"la2":30.254,"lo1":-89.0895,"lo2":-89.0444,"dy":0.0017,"dx":0.0017,"nx":28,"ny":28,"refTime":"2024-08-06T03:00:00:Z","depth":0,"parameterNumber":2,"parameterNumberName":"U-component_of_WINDS"},"data":[0,0,0,0,0,0,0,0,0,0,0,0,0,0,0,0,0,0,0,0,0,0,0,0,0,0,0,0,0,0,0,0,0,0,0,0,0,0,0,0,0,0,0,0,0,0,0,0,0,0,0,0,0,0,0,0,0,0,3.0885,3.0885,0,3.0934,3.0935,3.0935,3.0937,3.0937,3.0936,3.0935,3.0988,3.0989,3.0991,0,0,0,0,0,0,0,0,0,0,0,0,0,3.0797,3.0798,3.0885,3.0885,3.0886,3.0934,3.0935,3.0936,3.0937,3.0937,3.0936,3.0935,3.0987,3.0989,3.0992,0,0,0,0,0,0,0,0,0,0,0,0,0,3.084,3.0799,3.0885,3.0893,3.0894,3.0934,3.0935,3.0936,3.0937,3.0937,3.0936,3.0935,3.0986,3.0989,3.0992,3.1028,0,0,3.1001,3.1002,0,0,0,0,0,0,0,0,3.0837,3.0843,3.0891,3.0892,3.0894,3.0929,3.0923,3.0967,3.0938,3.0921,3.0935,3.0934,3.0969,3.0973,3.0984,3.103,3.1032,3.1001,3.1003,3.1004,3.1005,0,0,0,0,0,0,0,3.0834,3.0841,3.0904,3.0892,3.0893,3.0896,3.0901,3.0931,3.0949,3.0922,3.0923,3.0928,3.0969,3.0982,3.0986,3.1033,3.1001,3.1004,3.1005,3.1007,3.1117,3.1118,0,0,0,0,0,0,3.0829,3.0838,3.0903,3.0906,3.0863,3.0898,3.0903,3.0918,3.0949,3.0953,3.0929,3.0928,3.0977,3.0982,3.0987,3.1035,3.1004,3.1007,3.1008,3.1116,3.1117,3.1118,0,0,0,0,0,0,3.0827,3.0835,3.0901,3.0872,3.0881,3.09,3.0917,3.092,3.0932,3.0954,3.0958,3.0938,3.0977,3.0983,3.1019,3.1037,3.1008,3.1011,3.1114,3.1116,3.1118,3.1128,0,0,0,0,0,0,3.0825,3.0834,3.0846,3.0872,3.0882,3.093,3.0918,3.0921,3.0937,3.0936,3.0963,3.0967,3.0976,3.1015,3.1022,3.104,3.1013,3.1113,3.1115,3.1117,3.1126,3.113,3.1133,0,0,0,0,0,3.0822,3.0847,3.0847,3.0855,3.0898,3.0931,3.0937,3.0946,3.0938,3.0952,3.0967,3.0966,3.1034,3.1018,3.1026,3.1046,3.1112,3.1114,3.1117,3.1124,3.1129,3.1133,0,0,0,0,0,0,3.0821,3.085,3.0851,3.0885,3.0905,3.0931,3.0948,3.095,3.0974,3.0972,3.0984,3.0991,3.1027,3.104,3.1022,3.1085,3.1072,3.1076,3.1075,3.1079,3.1083,3.1079,3.1015,0,0,0,0,0,3.0826,3.0849,3.0873,3.09,3.0911,3.0928,3.0943,3.0949,3.0971,3.098,3.0997,3.102,3.1047,3.1063,3.1089,3.1128,3.1136,3.1146,3.115,3.1152,3.1156,3.1183,3.1188,3.1127,3.1127,3.1127,0,0,3.0834,3.0852,3.0866,3.0901,3.0918,3.0944,3.0935,3.0962,3.0982,3.0984,3.1019,3.1033,3.1059,3.1098,3.1116,3.111,3.1175,3.1156,3.1158,3.116,3.1186,3.1192,3.1197,3.1129,3.1129,3.1128,0,0,3.0862,3.0877,3.0904,3.0922,3.0948,3.096,3.0967,3.0993,3.1003,3.1039,3.1042,3.1067,3.1111,3.1131,3.1147,3.1189,3.1191,3.1197,3.1215,3.1241,3.1246,3.125,3.1268,3.1274,3.1201,3.1201,3.1201,0,3.0869,3.0907,3.0918,3.0946,3.0963,3.0967,3.0996,3.1013,3.1046,3.1059,3.1052,3.1111,3.1129,3.1174,3.1185,3.1197,3.1207,3.1194,3.1244,3.1249,3.1253,3.127,3.1277,3.1202,3.1202,3.1202,3.1202,0,3.0916,3.0943,3.0962,3.0995,3.1014,3.1042,3.1059,3.1078,3.1084,3.1097,3.1136,3.1158,3.119,3.1202,3.1207,3.125,3.1246,3.1241,3.1229,3.1259,3.1276,3.1283,3.1203,3.1203,3.1202,3.1202,0,0,3.0943,3.0985,3.0992,3.1009,3.104,3.1062,3.1093,3.1124,3.1142,3.1166,3.1193,3.1233,3.1231,3.1249,3.1258,3.128,3.1316,3.1273,3.1274,3.1283,3.1369,3.1374,3.1381,3.1318,3.1319,3.132,3.1368,0,3.0977,3.103,3.1043,3.1089,3.1116,3.1123,3.115,3.1174,3.1188,3.1215,3.1232,3.1261,3.1254,3.1266,3.1288,3.1307,3.1334,3.1304,3.1346,3.1347,3.134,3.1389,3.1392,3.1437,3.1374,3.1376,3.1376,0,3.1022,3.1049,3.1098,3.113,3.1142,3.1166,3.1199,3.1223,3.1252,3.1262,3.1284,3.1292,3.1327,3.1313,3.1363,3.1342,3.1361,3.1374,3.1376,3.1381,3.1364,3.1398,3.1451,3.1458,3.1386,3.1385,3.1385,0,3.1041,3.1089,3.1125,3.114,3.1177,3.1194,3.1211,3.1239,3.1259,3.1288,3.1302,3.1335,3.1353,3.138,3.1398,3.1385,3.1448,3.1434,3.146,3.1459,3.1472,3.1471,3.1531,3.1482,3.1482,3.1482,3.1481,0,3.1078,3.1108,3.1135,3.1157,3.1193,3.1209,3.1245,3.1262,3.1288,3.1316,3.1324,3.1351,3.1371,3.1402,3.1416,3.1458,3.1466,3.1476,3.148,3.1476,3.1475,3.1489,3.1487,3.1483,3.1483,3.1483,3.1482,0,3.1103,3.1122,3.1163,3.1197,3.1206,3.1231,3.1261,3.1285,3.1302,3.1338,3.1347,3.1374,3.1411,3.1431,3.1476,3.1486,3.1534,3.1535,3.1525,3.1526,3.1551,3.155,3.1623,3.1635,3.1576,3.1577,3.1577,0,3.1126,3.115,3.1187,3.1207,3.1224,3.1255,3.1276,3.1294,3.1316,3.1354,3.1375,3.1412,3.1443,3.1502,3.1527,3.1564,3.1567,3.159,3.1572,3.157,3.157,3.1569,3.1574,3.1593,3.1594,3.1594,3.1595,0,3.1165,3.1174,3.1204,3.1239,3.1264,3.1292,3.132,3.1336,3.1359,3.1385,3.1423,3.1447,3.1496,3.1534,3.1574,3.1594,3.16,3.1601,3.1609,3.1606,3.16,3.1606,3.1535,3.1599,3.1598,3.1598,3.1598,3.1598,3.1191,3.1215,3.1246,3.128,3.1303,3.1331,3.1356,3.1377,3.1409,3.145,3.1459,3.1501,3.1534,3.1588,3.1609,3.1644,3.164,3.1651,3.1654,3.1657,3.1659,3.1594,3.1651,3.1651,3.1651,3.1651,3.1651,0,3.1233,3.1254,3.1286,3.1326,3.1354,3.1357,3.139,3.1414,3.145,3.148,3.1511,3.1558,3.1597,3.1626,3.1667,3.1689,3.1693,3.1699,3.1699,3.1704,3.1659,3.1649,3.1696,3.1696,3.1696,3.1696,3.1696,3.1696,3.1258,3.1299,3.1313,3.1367,3.1389,3.1429,3.1448,3.1475,3.1499,3.1551,3.1584,3.1603,3.1634,3.1678,3.1715,3.1723,3.1739,3.1745,3.1754,3.1711,3.1706,3.1702,3.1693,3.1748,3.1748,3.1796,3.1796,3.1796]},{"header":{"parameterUnit":"m.s-1","parameterCategory":1,"la1":30.2991,"la2":30.254,"lo1":-89.0895,"lo2":-89.0444,"dy":0.0017,"dx":0.0017,"nx":28,"ny":28,"refTime":"2024-08-06T03:00:00:Z","depth":0,"parameterNumber":3,"parameterNumberName":"V-component_of_WINDS"},"data":[0,0,0,0,0,0,0,0,0,0,0,0,0,0,0,0,0,0,0,0,0,0,0,0,0,0,0,0,0,0,0,0,0,0,0,0,0,0,0,0,0,0,0,0,0,0,0,0,0,0,0,0,0,0,0,0,0,0,-1.6919,-1.6918,0,-1.6771,-1.677,-1.6768,-1.683,-1.6833,-1.6837,-1.684,-1.668,-1.6672,-1.6665,0,0,0,0,0,0,0,0,0,0,0,0,0,-1.7247,-1.7241,-1.6919,-1.6917,-1.6916,-1.6771,-1.6769,-1.6767,-1.6829,-1.6833,-1.6838,-1.6842,-1.6682,-1.6673,-1.6664,0,0,0,0,0,0,0,0,0,0,0,0,0,-1.7102,-1.7238,-1.692,-1.6929,-1.6929,-1.6772,-1.6769,-1.6767,-1.6828,-1.6834,-1.6839,-1.6844,-1.6685,-1.6674,-1.6663,-1.6485,0,0,-1.6628,-1.6623,0,0,0,0,0,0,0,0,-1.711,-1.709,-1.693,-1.6928,-1.6927,-1.6825,-1.6826,-1.6672,-1.6827,-1.6866,-1.684,-1.6847,-1.6723,-1.6709,-1.6669,-1.6478,-1.6471,-1.6627,-1.662,-1.6615,-1.6612,0,0,0,0,0,0,0,-1.712,-1.7097,-1.686,-1.6927,-1.6926,-1.6938,-1.6924,-1.6797,-1.6766,-1.6863,-1.6867,-1.6849,-1.6723,-1.668,-1.6666,-1.6468,-1.6627,-1.6617,-1.661,-1.6606,-1.6121,-1.6116,0,0,0,0,0,0,-1.7131,-1.7105,-1.6865,-1.6856,-1.7034,-1.6928,-1.6912,-1.6852,-1.6768,-1.676,-1.6845,-1.6853,-1.6697,-1.6679,-1.666,-1.6445,-1.6615,-1.6604,-1.6598,-1.6127,-1.612,-1.6114,0,0,0,0,0,0,-1.7138,-1.711,-1.6871,-1.6981,-1.6952,-1.6917,-1.6849,-1.6846,-1.6803,-1.6754,-1.6748,-1.6807,-1.67,-1.6676,-1.6528,-1.644,-1.6599,-1.6589,-1.6134,-1.6125,-1.6117,-1.6013,0,0,0,0,0,0,-1.7147,-1.7112,-1.7046,-1.698,-1.6946,-1.6744,-1.6844,-1.6839,-1.6784,-1.6793,-1.6716,-1.6709,-1.6703,-1.6545,-1.6517,-1.6427,-1.658,-1.6142,-1.613,-1.612,-1.6024,-1.6002,-1.5982,0,0,0,0,0,-1.7159,-1.7021,-1.7042,-1.7013,-1.6863,-1.6739,-1.6719,-1.6717,-1.6777,-1.6709,-1.6677,-1.6711,-1.6455,-1.6529,-1.6498,-1.6404,-1.6148,-1.6134,-1.612,-1.6033,-1.6006,-1.5983,0,0,0,0,0,0,-1.7074,-1.7012,-1.7035,-1.6872,-1.6811,-1.675,-1.6663,-1.6689,-1.6606,-1.6618,-1.6616,-1.6598,-1.6445,-1.641,-1.6494,-1.6226,-1.631,-1.6289,-1.6254,-1.6228,-1.6207,-1.6217,-1.6571,0,0,0,0,0,-1.7037,-1.6944,-1.6894,-1.6755,-1.6723,-1.6699,-1.6644,-1.6649,-1.6583,-1.6557,-1.6514,-1.6447,-1.6352,-1.6288,-1.6198,-1.6021,-1.6003,-1.594,-1.5919,-1.5902,-1.5883,-1.5785,-1.5755,-1.6069,-1.6069,-1.6069,0,0,-1.6958,-1.6913,-1.6854,-1.6737,-1.669,-1.659,-1.6676,-1.6568,-1.6493,-1.6539,-1.6397,-1.6364,-1.6289,-1.6125,-1.6051,-1.6091,-1.5794,-1.5885,-1.5872,-1.5862,-1.5768,-1.5738,-1.5711,-1.606,-1.6062,-1.6063,0,0,-1.6763,-1.6721,-1.66,-1.6552,-1.648,-1.6465,-1.6436,-1.6371,-1.6351,-1.621,-1.6242,-1.6152,-1.5988,-1.5933,-1.5883,-1.5668,-1.5695,-1.5638,-1.5527,-1.5431,-1.5406,-1.5384,-1.5305,-1.5276,-1.5621,-1.562,-1.562,0,-1.6673,-1.6528,-1.6533,-1.6422,-1.6368,-1.641,-1.6285,-1.6237,-1.6138,-1.6098,-1.6146,-1.5941,-1.5893,-1.5716,-1.5664,-1.5623,-1.5587,-1.5645,-1.541,-1.5388,-1.5368,-1.5291,-1.5262,-1.5614,-1.5614,-1.5615,-1.5616,0,-1.6419,-1.6318,-1.6228,-1.6134,-1.6071,-1.5953,-1.5938,-1.5873,-1.5883,-1.5861,-1.5715,-1.566,-1.5558,-1.5517,-1.5525,-1.534,-1.5367,-1.5413,-1.5496,-1.5331,-1.5259,-1.523,-1.5604,-1.5606,-1.5608,-1.561,0,0,-1.6164,-1.6077,-1.6043,-1.6001,-1.5925,-1.5845,-1.5729,-1.5632,-1.5575,-1.5506,-1.5405,-1.5266,-1.5308,-1.5251,-1.5253,-1.5169,-1.4999,-1.5224,-1.5223,-1.5182,-1.4788,-1.4752,-1.4718,-1.5018,-1.5013,-1.5008,-1.4793,0,-1.5961,-1.576,-1.5762,-1.5574,-1.5478,-1.5517,-1.5415,-1.5356,-1.5333,-1.5246,-1.522,-1.5121,-1.5185,-1.5151,-1.507,-1.5037,-1.4919,-1.5053,-1.4921,-1.4916,-1.4935,-1.4682,-1.4643,-1.4443,-1.4766,-1.4761,-1.4758,0,-1.5697,-1.5622,-1.5425,-1.5363,-1.5323,-1.5232,-1.5142,-1.5061,-1.4994,-1.4983,-1.4921,-1.4936,-1.4814,-1.4904,-1.4734,-1.4825,-1.4771,-1.4747,-1.4739,-1.4724,-1.4824,-1.4656,-1.4379,-1.4348,-1.4714,-1.4718,-1.4721,0,-1.5526,-1.5376,-1.5239,-1.5201,-1.5127,-1.5061,-1.5026,-1.4965,-1.4907,-1.4828,-1.479,-1.4697,-1.4645,-1.4572,-1.456,-1.4628,-1.4389,-1.4478,-1.4373,-1.4373,-1.4318,-1.432,-1.4025,-1.4289,-1.4289,-1.429,-1.4291,0,-1.5298,-1.5175,-1.5161,-1.5076,-1.4939,-1.4942,-1.4805,-1.4775,-1.4721,-1.4628,-1.4656,-1.4568,-1.456,-1.4468,-1.4459,-1.4318,-1.4295,-1.428,-1.4278,-1.4275,-1.4277,-1.4237,-1.425,-1.4282,-1.4284,-1.4285,-1.4287,0,-1.5082,-1.5069,-1.4921,-1.4864,-1.4846,-1.4747,-1.4696,-1.4613,-1.4595,-1.4477,-1.4449,-1.4418,-1.4312,-1.4295,-1.4169,-1.4162,-1.3993,-1.4007,-1.4016,-1.4016,-1.3911,-1.3919,-1.3576,-1.353,-1.3828,-1.3825,-1.3823,0,-1.4936,-1.4843,-1.4776,-1.4717,-1.468,-1.4585,-1.4526,-1.4525,-1.4462,-1.4379,-1.4305,-1.4203,-1.412,-1.3948,-1.3912,-1.3816,-1.3826,-1.3712,-1.3811,-1.3811,-1.382,-1.3824,-1.3813,-1.3692,-1.3689,-1.3686,-1.3684,0,-1.4675,-1.4674,-1.459,-1.4502,-1.4432,-1.4362,-1.4296,-1.4246,-1.4236,-1.4164,-1.4057,-1.3993,-1.3866,-1.3762,-1.3667,-1.3628,-1.3652,-1.3654,-1.3624,-1.3618,-1.3625,-1.3617,-1.396,-1.3661,-1.3663,-1.3665,-1.3666,-1.3667,-1.4487,-1.4406,-1.4346,-1.4251,-1.4202,-1.414,-1.4059,-1.4031,-1.3943,-1.3842,-1.3846,-1.3728,-1.3662,-1.3537,-1.3491,-1.3397,-1.3433,-1.339,-1.3378,-1.3367,-1.3355,-1.3644,-1.338,-1.338,-1.3381,-1.3382,-1.3382,0,-1.4226,-1.419,-1.4103,-1.4011,-1.3935,-1.397,-1.3899,-1.3832,-1.3728,-1.3667,-1.3586,-1.3462,-1.3362,-1.3319,-1.322,-1.3152,-1.316,-1.3125,-1.3128,-1.3118,-1.333,-1.3365,-1.312,-1.312,-1.312,-1.312,-1.312,-1.312,-1.408,-1.3943,-1.3934,-1.3773,-1.3737,-1.3623,-1.358,-1.3521,-1.3472,-1.3333,-1.3251,-1.3226,-1.317,-1.3067,-1.2976,-1.2966,-1.2926,-1.2885,-1.2879,-1.3077,-1.3103,-1.3129,-1.3161,-1.2877,-1.2877,-1.2675,-1.2673,-1.2671]}]]